Regional Weather Roundup
Issued by NWS Sterling, VA

Home | Current Version | Previous Version | Text Only | Print | Product List | Glossary Off
Versions: 1 2 3 4 5 6 7 8 9 10 11 12 13 14 15 16 17 18 19 20 21 22 23 24 25 26 27

000
ASUS41 KLWX 161410
RWRLWX

REGIONAL WEATHER ROUNDUP
NATIONAL WEATHER SERVICE BALTIMORE MD/WASHINGTON DC
1000 AM EDT WED APR 16 2014

Note: "FAIR" indicates few or no clouds below 12,000 feet
with no significant weather and/or obstructions to visibility.
 TC=TEMPERATURE CELSIUS

 * =Non NWS site. Station does not report precipitation (e.g. rain,
    snow, etc.), thunder, or fog.

DCZ001-MDZ009-015-VAZ040>042-051-053>054-161500-
WASHINGTON METRO

CITY           SKY/WX    TMP DP  RH WIND       PRES   REMARKS
WASHINGTON NAT MOSUNNY   40  15  36 N18       30.44R
DULLES         MOSUNNY   36  13  38 NW16      30.43R WCI  26
ANDREWS AFB    SUNNY     37  14  40 N15       30.41R WCI  28
FT BELVOIR     SUNNY     38  12  33 NW13G21   30.43R
QUANTICO       SUNNY     39  13  34 N21G26    30.44R WCI  29
COLLEGE PARK*  SUNNY     37  14  38 NW9       30.43R
LEESBURG*      SUNNY     36  21  55 NW15G22   30.44R WCI  26
MANASSAS*      SUNNY     37  18  44 NW16G24   30.44R WCI  28
GAITHERSBURG*  SUNNY     36  12  38 NW9G17    30.44R WCI  29

$$

MDZ006>007-011-014-161500-
BALTIMORE METRO

CITY           SKY/WX    TMP DP  RH WIND       PRES   REMARKS
BWI AIRPORT    MOSUNNY   36  13  38 NW13G18   30.41R WCI  27
MD SCIENCE CTR   N/A     36  10  34 MISG      30.43R
MARTIN STATE   MOSUNNY   37  16  41 NW16      30.43R WCI  28
ANNAPOLIS      SUNNY     38  22  52 N13G24    30.41R
FORT MEADE*    SUNNY     37  18  44 NW9       30.44R

$$

MDZ012-015-019>023-161500-
MARYLAND EASTERN SHORE

CITY           SKY/WX    TMP DP  RH WIND       PRES   REMARKS
OCEAN CITY     SUNNY     39  20  46 N18G25    30.35R
SALISBURY      SUNNY     39  17  41 N16G25    30.36R
BAY BRIDGE AP* SUNNY     36  16  44 N15G23    30.41R WCI  26
CAMBRIDGE*     SUNNY     41  18  38 N17       30.38R
EASTON*        SUNNY     39  19  45 MISG      30.42R

$$

MDZ017>025-161500-
SOUTHERN MARYLAND

CITY           SKY/WX    TMP DP  RH WIND       PRES   REMARKS
PATUXENT RIVER MOSUNNY   39  17  41 N16G25    30.39R
ST INIGOES     SUNNY     39  16  39 NW10G22   30.39R
LEONARDTOWN*   SUNNY     36  14  41 N10G16    30.40R WCI  28

$$

MDZ003>005-161500-
NORTH CENTRAL MARYLAND

CITY           SKY/WX    TMP DP  RH WIND       PRES   REMARKS
FREDERICK*     SUNNY     37  18  44 N9G22     30.46
HAGERSTOWN APT SUNNY     33  13  43 NW13G23   30.41R WCI  24
WESTMINSTER*   SUNNY     32   9  37 N8G17     30.39R WCI  25

$$

MDZ501>502-161500-
WESTERN MARYLAND

CITY           SKY/WX    TMP DP  RH WIND       PRES   REMARKS
OAKLAND*       SUNNY     23   9  54 N7        30.31R
CUMBERLAND*    SUNNY     34  12  40 N9G17     30.48R WCI  26

$$

VAZ025>031-161500-
SHENANDOAH VALLEY

CITY           SKY/WX    TMP DP  RH WIND       PRES   REMARKS
WINCHESTER*    SUNNY     36  16  44 NW16      30.42R WCI  26
STAUNTON*      MOSUNNY   34  16  48 N14G21    30.41R WCI  24

$$

WVZ021-048>050-054>055-161500-
EASTERN WEST VIRGINIA PANHANDLE

CITY           SKY/WX    TMP DP  RH WIND       PRES   REMARKS
MARTINSBURG    SUNNY     35  12  38 NW12G21   30.43R WCI  27
PETERSBURG*    PTSUNNY   38  24  57 N6        30.44R

$$

VAZ036>039-050-161500-
CENTRAL FOOTHILLS

CITY           SKY/WX    TMP DP  RH WIND       PRES   REMARKS
CHARLOTTESVILL SUNNY     38  19  46 N7        30.39R
CULPEPER*      SUNNY     39  16  38 N9G21     30.44R

$$

VAZ055>057-161500-
NORTH AND CENTRAL PIEDMONT

CITY           SKY/WX    TMP DP  RH WIND       PRES   REMARKS
FREDERICKSBRG* SUNNY     39  18  41 N14G20    30.42R
STAFFORD*      SUNNY     39  19  44 NW16G25   30.46R

$$

NCZ024-NYZ072-PAZ021-071-VAZ022-071-161500-
OTHER REGIONAL OBSERVATIONS

CITY           SKY/WX    TMP DP  RH WIND       PRES   REMARKS
NEW YORK CITY  SUNNY     34  15  46 VRB6      30.33R
PHILADELPHIA   SUNNY     36  12  37 NW21G30   30.37R WCI  25
PITTSBURGH     MOSUNNY   29  11  47 CALM      30.45R
ROANOKE        SUNNY     37  16  42 NE12      30.40R
RICHMOND       MOSUNNY   40  17  39 N21G29    30.41R
RALEIGH        SUNNY     39  22  50 N10G20    30.38R

$$

ANZ530>537-161500-
MARINE OBSERVATIONS

STATION/POSITION TIME  TEMP    WIND        PRES
                       AIR SEA DIR/SP/G
                 (UTC) (F)     (DEG/KT/KT) (MB)
THOMAS PT LIGHT  1400   36 50  340/ 21/ 23 1029.5R
BALT KEY BRIDGE  1400   35     320/ 14/ 17 1030.1R
COVE POINT       1400   35     360/ 20/ 28 1028.8R
LEWISETTA        1400   37 52  350/ 14/ 19 1029.0R
SOLOMONS ISLAND  1400      53                N/A
PINEY POINT      1400           20/ 18/ 22   N/A

$$




USA.gov is the U.S. government's official web portal to all federal, state and local government web resources and services.